Time,TemperatureF,DewpointF,PressureIn,WindDirection,WindDirectionDegrees,WindSpeedMPH,WindSpeedGustMPH,Humidity,HourlyPrecipIn,Conditions,Clouds,dailyrainin,SoftwareType,DateUTC
2013-08-24 00:00:00,68.3,66.8,30.02,NNW,329,1.2,0.0,95,0.00,RA,,0.00,WeatherDisplay:10.37,2013-08-24 04:00:00,
2013-08-24 00:01:00,68.3,66.8,30.02,NNW,329,3.5,3.5,95,0.00,RA,,0.00,WeatherDisplay:10.37,2013-08-24 04:01:00,
2013-08-24 00:02:00,68.2,66.7,30.02,North,355,7.0,7.0,95,0.00,RA,,0.00,WeatherDisplay:10.37,2013-08-24 04:02:00,
2013-08-24 00:06:00,68.1,66.3,30.02,NW,305,1.2,1.2,94,0.00,RA,,0.00,WeatherDisplay:10.37,2013-08-24 04:06:00,
2013-08-24 00:11:00,68.0,66.5,30.02,NW,305,0.0,0.0,95,0.00,,,0.00,WeatherDisplay:10.37,2013-08-24 04:11:00,
2013-08-24 00:16:00,67.9,66.1,30.02,NW,315,3.5,3.5,94,0.00,,,0.00,WeatherDisplay:10.37,2013-08-24 04:16:00,
2013-08-24 00:21:00,67.8,66.0,30.03,NW,315,3.5,3.5,94,0.00,,,0.00,WeatherDisplay:10.37,2013-08-24 04:21:00,
2013-08-24 00:26:00,67.7,65.9,30.03,NW,322,3.5,3.5,94,0.00,,,0.00,WeatherDisplay:10.37,2013-08-24 04:26:00,
2013-08-24 00:31:00,67.6,65.8,30.03,North,5,3.5,3.5,94,0.00,,,0.00,WeatherDisplay:10.37,2013-08-24 04:31:00,
2013-08-24 00:36:00,67.5,65.7,30.03,North,9,0.0,0.0,94,0.00,,,0.00,WeatherDisplay:10.37,2013-08-24 04:36:00,
2013-08-24 00:41:00,67.4,65.6,30.03,North,9,0.0,0.0,94,0.00,,,0.00,WeatherDisplay:10.37,2013-08-24 04:41:00,
2013-08-24 00:46:00,67.3,65.5,30.04,NNE,20,3.5,3.5,94,0.00,,,0.00,WeatherDisplay:10.37,2013-08-24 04:46:00,
2013-08-24 00:51:00,67.2,65.4,30.04,NNE,30,3.5,3.5,94,0.00,,,0.00,WeatherDisplay:10.37,2013-08-24 04:51:00,
2013-08-24 00:56:00,67.0,64.9,30.04,NE,41,5.8,5.8,93,0.00,,,0.00,WeatherDisplay:10.37,2013-08-24 04:56:00,
2013-08-24 01:01:00,67.0,64.9,30.04,NE,41,0.0,0.0,93,0.00,,,0.00,WeatherDisplay:10.37,2013-08-24 05:01:00,
2013-08-24 01:06:00,66.9,64.8,30.04,NNW,348,5.8,5.8,93,0.00,,,0.00,WeatherDisplay:10.37,2013-08-24 05:06:00,
2013-08-24 01:11:00,66.9,64.8,30.04,North,9,2.3,2.3,93,0.00,,,0.00,WeatherDisplay:10.37,2013-08-24 05:11:00,
2013-08-24 01:16:00,66.8,64.7,30.04,NNE,29,3.5,3.5,93,0.00,,,0.00,WeatherDisplay:10.37,2013-08-24 05:16:00,
2013-08-24 01:21:00,66.8,64.7,30.04,NNE,30,2.3,2.3,93,0.00,,,0.00,WeatherDisplay:10.37,2013-08-24 05:21:00,
2013-08-24 01:26:00,66.8,64.7,30.05,NNE,29,3.5,3.5,93,0.00,,,0.00,WeatherDisplay:10.37,2013-08-24 05:26:00,
2013-08-24 01:31:00,66.8,64.7,30.05,NNW,330,1.2,1.2,93,0.00,,,0.00,WeatherDisplay:10.37,2013-08-24 05:31:00,
2013-08-24 01:36:00,66.8,64.7,30.04,NNW,331,3.5,3.5,93,0.00,,,0.00,WeatherDisplay:10.37,2013-08-24 05:36:00,
2013-08-24 01:41:00,66.8,64.7,30.05,NNW,341,3.5,3.5,93,0.00,,,0.00,WeatherDisplay:10.37,2013-08-24 05:41:00,
2013-08-24 01:46:00,66.7,64.6,30.05,NE,49,3.5,3.5,93,0.00,,,0.00,WeatherDisplay:10.37,2013-08-24 05:46:00,
2013-08-24 01:51:00,66.7,64.6,30.05,NE,48,3.5,3.5,93,0.00,,,0.00,WeatherDisplay:10.37,2013-08-24 05:51:00,
2013-08-24 01:56:00,66.6,64.5,30.05,NW,304,0.0,0.7,93,0.00,,,0.00,WeatherDisplay:10.37,2013-08-24 05:56:00,
2013-08-24 02:01:00,66.6,64.8,30.05,NW,304,0.0,0.0,94,0.00,,,0.00,WeatherDisplay:10.37,2013-08-24 06:01:00,
2013-08-24 02:06:00,66.6,64.8,30.05,ENE,57,1.2,0.0,94,0.00,,,0.00,WeatherDisplay:10.37,2013-08-24 06:06:00,
2013-08-24 02:11:00,66.5,64.7,30.05,ENE,61,0.0,0.0,94,0.00,,,0.00,WeatherDisplay:10.37,2013-08-24 06:11:00,
2013-08-24 02:16:00,66.5,64.7,30.05,ENE,62,0.0,0.0,94,0.00,,,0.00,WeatherDisplay:10.37,2013-08-24 06:16:00,
2013-08-24 02:21:00,66.5,64.7,30.05,ENE,61,1.2,0.0,94,0.00,,,0.00,WeatherDisplay:10.37,2013-08-24 06:21:00,
2013-08-24 02:26:00,66.5,64.7,30.05,ENE,62,1.2,1.2,94,0.00,,,0.00,WeatherDisplay:10.37,2013-08-24 06:26:00,
2013-08-24 02:31:00,66.5,64.7,30.05,ENE,62,1.2,0.0,94,0.00,,,0.00,WeatherDisplay:10.37,2013-08-24 06:31:00,
2013-08-24 02:36:00,66.5,64.7,30.05,ENE,62,0.0,0.0,94,0.00,,,0.00,WeatherDisplay:10.37,2013-08-24 06:36:00,
2013-08-24 02:41:00,66.5,64.7,30.05,ENE,62,0.0,0.0,94,0.00,,,0.00,WeatherDisplay:10.37,2013-08-24 06:41:00,
2013-08-24 02:46:00,66.5,64.7,30.05,ENE,62,1.2,0.0,94,0.00,,,0.00,WeatherDisplay:10.37,2013-08-24 06:46:00,
2013-08-24 02:51:00,66.5,64.7,30.05,ENE,61,0.0,0.0,94,0.00,,,0.00,WeatherDisplay:10.37,2013-08-24 06:51:00,
2013-08-24 02:56:00,66.5,64.7,30.05,ENE,62,0.0,0.0,94,0.00,,,0.00,WeatherDisplay:10.37,2013-08-24 06:56:00,
2013-08-24 03:01:00,66.5,64.7,30.05,ENE,62,0.0,0.0,94,0.00,,,0.00,WeatherDisplay:10.37,2013-08-24 07:01:00,
2013-08-24 03:06:00,66.5,65.0,30.05,ENE,61,0.0,0.0,95,0.00,,,0.00,WeatherDisplay:10.37,2013-08-24 07:06:00,
2013-08-24 03:11:00,66.5,65.0,30.05,ENE,61,3.5,3.5,95,0.00,,,0.00,WeatherDisplay:10.37,2013-08-24 07:11:00,
2013-08-24 03:16:00,66.5,65.0,30.05,ENE,61,0.0,0.0,95,0.00,,,0.00,WeatherDisplay:10.37,2013-08-24 07:16:00,
2013-08-24 03:21:00,66.5,65.0,30.05,ENE,61,0.0,0.0,95,0.00,,,0.00,WeatherDisplay:10.37,2013-08-24 07:21:00,
2013-08-24 03:26:00,66.5,65.0,30.06,ENE,61,0.0,0.0,95,0.00,,,0.00,WeatherDisplay:10.37,2013-08-24 07:26:00,
2013-08-24 03:31:00,66.5,65.0,30.06,ENE,61,0.0,0.0,95,0.00,,,0.00,WeatherDisplay:10.37,2013-08-24 07:31:00,
2013-08-24 03:36:00,66.5,65.0,30.06,ENE,61,0.0,0.0,95,0.00,,,0.00,WeatherDisplay:10.37,2013-08-24 07:36:00,
2013-08-24 03:41:00,66.5,65.0,30.06,ENE,61,0.0,0.0,95,0.00,,,0.00,WeatherDisplay:10.37,2013-08-24 07:41:00,
2013-08-24 03:46:00,66.4,64.9,30.06,ENE,61,1.2,1.2,95,0.00,,,0.00,WeatherDisplay:10.37,2013-08-24 07:46:00,
2013-08-24 03:51:00,66.3,64.8,30.06,ENE,61,0.0,0.0,95,0.00,,,0.00,WeatherDisplay:10.37,2013-08-24 07:51:00,
2013-08-24 03:56:00,66.3,64.8,30.06,ENE,61,0.0,0.0,95,0.00,,,0.00,WeatherDisplay:10.37,2013-08-24 07:56:00,
2013-08-24 04:01:00,66.2,64.7,30.06,North,355,0.0,0.0,95,0.00,,,0.00,WeatherDisplay:10.37,2013-08-24 08:01:00,
2013-08-24 04:06:00,66.2,64.7,30.06,NNW,338,0.0,0.0,95,0.00,,,0.00,WeatherDisplay:10.37,2013-08-24 08:06:00,
2013-08-24 04:11:00,66.1,64.6,30.06,NNW,338,0.0,0.0,95,0.00,,,0.00,WeatherDisplay:10.37,2013-08-24 08:11:00,
2013-08-24 04:16:00,66.0,64.5,30.06,NNW,331,1.2,0.0,95,0.00,,,0.00,WeatherDisplay:10.37,2013-08-24 08:16:00,
2013-08-24 04:21:00,65.8,64.3,30.06,NNW,331,0.0,0.0,95,0.00,,,0.00,WeatherDisplay:10.37,2013-08-24 08:21:00,
2013-08-24 04:26:00,65.7,63.9,30.06,NNW,334,1.2,1.2,94,0.00,,,0.00,WeatherDisplay:10.37,2013-08-24 08:26:00,
2013-08-24 04:31:00,65.6,63.8,30.06,NW,305,0.0,0.0,94,0.00,,,0.00,WeatherDisplay:10.37,2013-08-24 08:31:00,
2013-08-24 04:36:00,65.5,64.0,30.07,NW,305,0.0,0.0,95,0.00,,,0.00,WeatherDisplay:10.37,2013-08-24 08:36:00,
2013-08-24 04:41:00,65.4,63.9,30.07,NW,305,0.0,0.0,95,0.00,,,0.00,WeatherDisplay:10.37,2013-08-24 08:41:00,
2013-08-24 04:46:00,65.3,63.8,30.07,NW,305,0.0,0.0,95,0.00,,,0.00,WeatherDisplay:10.37,2013-08-24 08:46:00,
2013-08-24 04:51:00,65.2,63.7,30.07,NW,305,1.2,0.0,95,0.00,,,0.00,WeatherDisplay:10.37,2013-08-24 08:51:00,
2013-08-24 04:56:00,65.1,63.6,30.08,NW,305,2.3,2.3,95,0.00,,,0.00,WeatherDisplay:10.37,2013-08-24 08:56:00,
2013-08-24 05:01:00,65.0,63.5,30.08,NW,304,0.0,0.0,95,0.01,RA,,0.01,WeatherDisplay:10.37,2013-08-24 09:01:00,
2013-08-24 05:06:00,65.0,63.5,30.08,NW,305,2.3,2.3,95,0.01,RA,,0.01,WeatherDisplay:10.37,2013-08-24 09:06:00,
2013-08-24 05:11:00,64.9,63.4,30.08,NW,304,0.0,0.0,95,0.01,,,0.01,WeatherDisplay:10.37,2013-08-24 09:11:00,
2013-08-24 05:16:00,64.8,63.3,30.08,NW,305,0.0,0.0,95,0.01,,,0.01,WeatherDisplay:10.37,2013-08-24 09:16:00,
2013-08-24 05:21:00,64.7,63.2,30.09,NW,305,3.5,3.5,95,0.01,,,0.01,WeatherDisplay:10.37,2013-08-24 09:21:00,
2013-08-24 05:26:00,64.6,63.1,30.09,NW,306,0.0,0.0,95,0.01,,,0.01,WeatherDisplay:10.37,2013-08-24 09:26:00,
2013-08-24 05:31:00,64.6,63.1,30.09,NW,306,0.0,0.0,95,0.01,,,0.01,WeatherDisplay:10.37,2013-08-24 09:31:00,
2013-08-24 05:36:00,64.5,63.0,30.09,NW,306,0.0,0.0,95,0.01,,,0.01,WeatherDisplay:10.37,2013-08-24 09:36:00,
2013-08-24 05:41:00,64.4,62.9,30.09,NW,306,0.0,0.0,95,0.01,,,0.01,WeatherDisplay:10.37,2013-08-24 09:41:00,
2013-08-24 05:46:00,64.3,62.8,30.09,NW,306,0.0,0.0,95,0.01,,,0.01,WeatherDisplay:10.37,2013-08-24 09:46:00,
2013-08-24 05:51:00,64.2,62.7,30.09,NW,306,0.0,0.0,95,0.01,,,0.01,WeatherDisplay:10.37,2013-08-24 09:51:00,
2013-08-24 05:56:00,64.1,62.6,30.09,NW,306,0.0,0.0,95,0.01,,,0.01,WeatherDisplay:10.37,2013-08-24 09:56:00,
2013-08-24 06:01:00,64.0,62.5,30.10,NW,306,2.3,2.3,95,0.00,,,0.01,WeatherDisplay:10.37,2013-08-24 10:01:00,
2013-08-24 06:06:00,63.9,62.4,30.10,NW,306,0.0,0.0,95,0.00,,,0.01,WeatherDisplay:10.37,2013-08-24 10:06:00,
2013-08-24 06:11:00,63.8,62.3,30.10,NW,306,0.0,0.0,95,0.00,,,0.01,WeatherDisplay:10.37,2013-08-24 10:11:00,
2013-08-24 06:16:00,63.7,62.2,30.10,NW,306,0.0,0.0,95,0.00,,,0.01,WeatherDisplay:10.37,2013-08-24 10:16:00,
2013-08-24 06:21:00,63.6,62.1,30.11,NW,306,0.0,0.0,95,0.00,,,0.01,WeatherDisplay:10.37,2013-08-24 10:21:00,
2013-08-24 06:26:00,63.6,62.1,30.11,NW,306,0.0,0.0,95,0.00,,,0.01,WeatherDisplay:10.37,2013-08-24 10:26:00,
2013-08-24 06:31:00,63.4,61.9,30.11,NW,306,0.0,0.0,95,0.00,,,0.01,WeatherDisplay:10.37,2013-08-24 10:31:00,
2013-08-24 06:36:00,63.3,61.8,30.12,NW,306,0.0,0.0,95,0.00,,,0.01,WeatherDisplay:10.37,2013-08-24 10:36:00,
2013-08-24 06:41:00,63.2,61.7,30.12,NW,306,0.0,0.0,95,0.00,,,0.01,WeatherDisplay:10.37,2013-08-24 10:41:00,
2013-08-24 06:46:00,63.2,61.7,30.12,NW,306,0.0,0.0,95,0.00,,,0.01,WeatherDisplay:10.37,2013-08-24 10:46:00,
2013-08-24 06:51:00,63.1,61.6,30.13,NW,306,0.0,0.0,95,0.00,,,0.01,WeatherDisplay:10.37,2013-08-24 10:51:00,
2013-08-24 06:56:00,63.0,61.5,30.13,NW,306,0.0,0.0,95,0.00,,,0.01,WeatherDisplay:10.37,2013-08-24 10:56:00,
2013-08-24 07:01:00,62.9,61.4,30.13,NW,306,0.0,0.0,95,0.00,,,0.01,WeatherDisplay:10.37,2013-08-24 11:01:00,
2013-08-24 07:06:00,62.8,61.3,30.13,NW,306,0.0,0.0,95,0.00,,,0.01,WeatherDisplay:10.37,2013-08-24 11:06:00,
2013-08-24 07:11:00,62.7,61.2,30.14,NW,306,0.0,0.0,95,0.00,,,0.01,WeatherDisplay:10.37,2013-08-24 11:11:00,
2013-08-24 07:16:00,62.7,61.2,30.14,NW,306,0.0,0.0,95,0.00,,,0.01,WeatherDisplay:10.37,2013-08-24 11:16:00,
2013-08-24 07:21:00,62.6,61.1,30.14,NW,306,0.0,0.0,95,0.00,,,0.01,WeatherDisplay:10.37,2013-08-24 11:21:00,
2013-08-24 07:26:00,62.6,61.1,30.14,WSW,241,0.0,0.0,95,0.00,,,0.01,WeatherDisplay:10.37,2013-08-24 11:26:00,
2013-08-24 07:31:00,62.6,61.1,30.14,WSW,244,0.0,0.0,95,0.00,,,0.01,WeatherDisplay:10.37,2013-08-24 11:31:00,
2013-08-24 07:36:00,62.6,61.1,30.14,WSW,245,0.0,0.0,95,0.00,,,0.01,WeatherDisplay:10.37,2013-08-24 11:36:00,
2013-08-24 07:41:00,62.7,61.2,30.14,NW,326,0.0,0.0,95,0.00,,,0.01,WeatherDisplay:10.37,2013-08-24 11:41:00,
2013-08-24 07:46:00,62.7,61.2,30.14,NW,326,0.0,0.0,95,0.00,,,0.01,WeatherDisplay:10.37,2013-08-24 11:46:00,
2013-08-24 07:51:00,62.9,61.7,30.14,NW,326,1.2,0.0,96,0.00,,,0.01,WeatherDisplay:10.37,2013-08-24 11:51:00,
2013-08-24 07:56:00,63.3,62.1,30.15,NW,326,0.0,0.0,96,0.00,,,0.01,WeatherDisplay:10.37,2013-08-24 11:56:00,
2013-08-24 08:01:00,63.7,62.5,30.15,NW,317,6.9,6.9,96,0.00,,,0.01,WeatherDisplay:10.37,2013-08-24 12:01:00,
2013-08-24 08:06:00,64.1,62.9,30.15,NW,317,1.0,0.0,96,0.00,,,0.01,WeatherDisplay:10.37,2013-08-24 12:06:00,
2013-08-24 08:11:00,64.6,63.4,30.15,NW,317,1.2,0.0,96,0.00,,,0.01,WeatherDisplay:10.37,2013-08-24 12:11:00,
2013-08-24 08:16:00,65.0,64.4,30.15,NW,317,2.3,2.3,98,0.00,,,0.01,WeatherDisplay:10.37,2013-08-24 12:16:00,
2013-08-24 08:21:00,65.4,64.8,30.15,WNW,295,5.8,0.0,98,0.00,,,0.01,WeatherDisplay:10.37,2013-08-24 12:21:00,
2013-08-24 08:26:00,65.8,65.2,30.15,WNW,295,3.5,3.5,98,0.00,,,0.01,WeatherDisplay:10.37,2013-08-24 12:26:00,
2013-08-24 08:31:00,66.0,65.4,30.15,WNW,295,0.0,0.0,98,0.00,,,0.01,WeatherDisplay:10.37,2013-08-24 12:31:00,
2013-08-24 08:36:00,66.5,65.3,30.15,WNW,295,3.5,3.5,96,0.00,,,0.01,WeatherDisplay:10.37,2013-08-24 12:36:00,
2013-08-24 08:41:00,66.9,65.7,30.15,WNW,303,2.3,2.3,96,0.00,,,0.01,WeatherDisplay:10.37,2013-08-24 12:41:00,
2013-08-24 08:46:00,67.3,66.1,30.15,WNW,303,0.0,0.0,96,0.00,,,0.01,WeatherDisplay:10.37,2013-08-24 12:46:00,
2013-08-24 08:51:00,67.7,66.5,30.15,WNW,303,1.2,1.2,96,0.00,,,0.01,WeatherDisplay:10.37,2013-08-24 12:51:00,
2013-08-24 08:56:00,68.1,66.6,30.16,WNW,303,0.0,0.0,95,0.00,,,0.01,WeatherDisplay:10.37,2013-08-24 12:56:00,
2013-08-24 09:01:00,68.6,66.8,30.16,WNW,303,0.0,0.0,94,0.00,,,0.01,WeatherDisplay:10.37,2013-08-24 13:01:00,
2013-08-24 09:06:00,69.1,67.0,30.16,WNW,303,0.0,0.0,93,0.00,,,0.01,WeatherDisplay:10.37,2013-08-24 13:06:00,
2013-08-24 09:11:00,69.6,66.9,30.16,North,5,7.0,7.0,91,0.00,,,0.01,WeatherDisplay:10.37,2013-08-24 13:11:00,
2013-08-24 09:16:00,70.2,66.1,30.16,WNW,292,1.2,1.2,87,0.00,,,0.01,WeatherDisplay:10.37,2013-08-24 13:16:00,
2013-08-24 09:21:00,70.8,66.1,30.16,WNW,283,0.0,0.0,85,0.00,,,0.01,WeatherDisplay:10.37,2013-08-24 13:21:00,
2013-08-24 09:26:00,71.4,66.3,30.16,NE,37,3.0,3.0,84,0.00,,,0.01,WeatherDisplay:10.37,2013-08-24 13:26:00,
2013-08-24 09:31:00,72.0,65.8,30.16,East,86,2.3,2.3,81,0.00,,,0.01,WeatherDisplay:10.37,2013-08-24 13:31:00,
2013-08-24 09:36:00,72.6,66.4,30.16,East,80,0.0,0.0,81,0.00,,,0.01,WeatherDisplay:10.37,2013-08-24 13:36:00,
2013-08-24 09:41:00,73.1,66.2,30.16,ENE,76,0.0,0.0,79,0.00,,,0.01,WeatherDisplay:10.37,2013-08-24 13:41:00,
2013-08-24 09:46:00,73.5,66.2,30.16,NNW,348,0.0,0.0,78,0.00,,,0.01,WeatherDisplay:10.37,2013-08-24 13:46:00,
2013-08-24 09:51:00,74.0,66.0,30.16,NNW,338,4.6,4.6,76,0.00,,,0.01,WeatherDisplay:10.37,2013-08-24 13:51:00,
2013-08-24 09:56:00,74.4,66.0,30.17,NNW,337,1.2,1.2,75,0.00,,,0.01,WeatherDisplay:10.37,2013-08-24 13:56:00,
2013-08-24 10:01:00,74.8,66.3,30.17,NNW,348,6.9,6.9,75,0.00,,,0.01,WeatherDisplay:10.37,2013-08-24 14:01:00,
2013-08-24 10:06:00,75.2,66.7,30.17,NNE,13,2.3,2.3,75,0.00,,,0.01,WeatherDisplay:10.37,2013-08-24 14:06:00,
2013-08-24 10:11:00,75.6,66.3,30.17,East,88,1.2,1.2,73,0.00,,,0.01,WeatherDisplay:10.37,2013-08-24 14:11:00,
2013-08-24 10:16:00,76.1,66.8,30.17,NNE,18,8.1,8.1,73,0.00,,,0.01,WeatherDisplay:10.37,2013-08-24 14:16:00,
2013-08-24 10:21:00,76.6,66.5,30.17,ENE,71,2.3,2.3,71,0.00,,,0.01,WeatherDisplay:10.37,2013-08-24 14:21:00,
2013-08-24 10:26:00,76.8,66.3,30.17,North,355,5.8,5.8,70,0.00,,,0.01,WeatherDisplay:10.37,2013-08-24 14:26:00,
2013-08-24 10:31:00,77.0,66.5,30.17,North,355,4.6,0.0,70,0.00,,,0.01,WeatherDisplay:10.37,2013-08-24 14:31:00,
2013-08-24 10:36:00,77.1,66.6,30.18,NE,37,1.2,1.2,70,0.00,,,0.01,WeatherDisplay:10.37,2013-08-24 14:36:00,
2013-08-24 10:41:00,77.2,66.7,30.17,NW,313,4.6,4.6,70,0.00,,,0.01,WeatherDisplay:10.37,2013-08-24 14:41:00,
2013-08-24 10:46:00,77.5,66.9,30.17,NNW,342,1.2,1.2,70,0.00,,,0.01,WeatherDisplay:10.37,2013-08-24 14:46:00,
2013-08-24 10:51:00,77.8,66.4,30.18,North,10,3.5,3.5,68,0.00,,,0.01,WeatherDisplay:10.37,2013-08-24 14:51:00,
2013-08-24 10:56:00,78.1,66.2,30.18,North,360,10.4,10.4,67,0.00,,,0.01,WeatherDisplay:10.37,2013-08-24 14:56:00,
2013-08-24 11:01:00,78.4,67.0,30.18,NE,54,4.6,4.6,68,0.00,,,0.01,WeatherDisplay:10.37,2013-08-24 15:01:00,
2013-08-24 11:06:00,78.7,66.4,30.18,NE,54,3.5,3.5,66,0.00,,,0.01,WeatherDisplay:10.37,2013-08-24 15:06:00,
2013-08-24 11:11:00,78.9,66.1,30.18,East,84,3.5,3.5,65,0.00,,,0.01,WeatherDisplay:10.37,2013-08-24 15:11:00,
2013-08-24 11:16:00,78.9,66.1,30.18,North,351,4.6,4.6,65,0.00,,,0.01,WeatherDisplay:10.37,2013-08-24 15:16:00,
2013-08-24 11:21:00,79.0,65.8,30.18,ENE,69,4.6,4.6,64,0.00,,,0.01,WeatherDisplay:10.37,2013-08-24 15:21:00,
2013-08-24 11:26:00,79.0,65.8,30.18,NNE,24,3.5,3.5,64,0.00,,,0.01,WeatherDisplay:10.37,2013-08-24 15:26:00,
2013-08-24 11:31:00,79.3,65.6,30.18,NNE,33,4.6,4.6,63,0.00,,,0.01,WeatherDisplay:10.37,2013-08-24 15:31:00,
2013-08-24 11:36:00,79.3,63.7,30.18,North,350,2.3,2.3,59,0.00,,,0.01,WeatherDisplay:10.37,2013-08-24 15:36:00,
2013-08-24 11:41:00,79.4,65.2,30.18,NE,45,4.6,4.6,62,0.00,,,0.01,WeatherDisplay:10.37,2013-08-24 15:41:00,
2013-08-24 11:46:00,79.6,65.9,30.18,ENE,58,3.5,3.5,63,0.00,,,0.01,WeatherDisplay:10.37,2013-08-24 15:46:00,
2013-08-24 11:51:00,80.1,66.4,30.18,NNW,344,2.3,2.3,63,0.00,,,0.01,WeatherDisplay:10.37,2013-08-24 15:51:00,
2013-08-24 11:56:00,80.7,66.5,30.18,NW,321,3.5,3.5,62,0.00,,,0.01,WeatherDisplay:10.37,2013-08-24 15:56:00,
2013-08-24 12:01:00,81.0,65.3,30.18,ENE,64,3.5,3.5,59,0.00,,,0.01,WeatherDisplay:10.37,2013-08-24 16:01:00,
2013-08-24 12:06:00,81.2,65.0,30.18,North,10,5.8,5.8,58,0.00,,,0.01,WeatherDisplay:10.37,2013-08-24 16:06:00,
2013-08-24 12:11:00,81.1,64.4,30.18,ENE,67,1.2,1.2,57,0.00,,,0.01,WeatherDisplay:10.37,2013-08-24 16:11:00,
2013-08-24 12:16:00,81.0,64.8,30.17,East,84,3.5,3.5,58,0.00,,,0.01,WeatherDisplay:10.37,2013-08-24 16:16:00,
2013-08-24 12:21:00,81.0,65.3,30.17,NE,40,6.9,6.9,59,0.00,,,0.01,WeatherDisplay:10.37,2013-08-24 16:21:00,
2013-08-24 12:26:00,81.2,66.9,30.17,NNW,348,4.6,4.6,62,0.00,,,0.01,WeatherDisplay:10.37,2013-08-24 16:26:00,
2013-08-24 12:31:00,81.2,64.0,30.18,East,82,3.5,3.5,56,0.00,,,0.01,WeatherDisplay:10.37,2013-08-24 16:31:00,
2013-08-24 12:36:00,81.5,66.3,30.17,NE,46,5.8,5.8,60,0.00,,,0.01,WeatherDisplay:10.37,2013-08-24 16:36:00,
2013-08-24 12:41:00,81.6,65.4,30.17,NNW,345,3.5,3.5,58,0.00,,,0.01,WeatherDisplay:10.37,2013-08-24 16:41:00,
2013-08-24 12:46:00,81.9,65.7,30.17,NNE,23,5.8,5.8,58,0.00,,,0.01,WeatherDisplay:10.37,2013-08-24 16:46:00,
2013-08-24 12:51:00,82.1,65.9,30.18,ENE,68,2.3,2.3,58,0.00,,,0.01,WeatherDisplay:10.37,2013-08-24 16:51:00,
2013-08-24 12:56:00,82.2,63.9,30.18,NNE,28,3.5,3.5,54,0.00,,,0.01,WeatherDisplay:10.37,2013-08-24 16:56:00,
2013-08-24 13:01:00,82.1,64.3,30.17,North,355,0.0,0.2,55,0.00,,,0.01,WeatherDisplay:10.37,2013-08-24 17:01:00,
2013-08-24 13:06:00,82.1,63.8,30.18,NE,40,4.6,4.6,54,0.00,,,0.01,WeatherDisplay:10.37,2013-08-24 17:06:00,
2013-08-24 13:11:00,82.3,63.5,30.18,North,355,5.8,5.8,53,0.00,,,0.01,WeatherDisplay:10.37,2013-08-24 17:11:00,
2013-08-24 13:16:00,82.5,63.6,30.18,North,360,2.3,2.3,53,0.00,,,0.01,WeatherDisplay:10.37,2013-08-24 17:16:00,
2013-08-24 13:21:00,82.4,62.5,30.18,NNE,24,4.6,4.6,51,0.00,,,0.01,WeatherDisplay:10.37,2013-08-24 17:21:00,
2013-08-24 13:26:00,82.3,64.0,30.18,NNW,332,5.8,5.8,54,0.00,,,0.01,WeatherDisplay:10.37,2013-08-24 17:26:00,
2013-08-24 13:31:00,82.3,63.5,30.18,NNE,17,3.5,3.5,53,0.00,,,0.01,WeatherDisplay:10.37,2013-08-24 17:31:00,
2013-08-24 13:36:00,82.2,62.8,30.18,NNW,346,3.5,3.5,52,0.00,,,0.01,WeatherDisplay:10.37,2013-08-24 17:36:00,
2013-08-24 13:41:00,81.8,62.5,30.18,North,360,3.5,3.5,52,0.00,,,0.01,WeatherDisplay:10.37,2013-08-24 17:41:00,
2013-08-24 13:46:00,81.8,62.5,30.18,North,360,3.5,3.5,52,0.00,,,0.01,WeatherDisplay:10.37,2013-08-24 17:46:00,
2013-08-24 13:51:00,81.4,62.6,30.18,NE,45,6.9,6.9,53,0.00,CLR,,0.01,WeatherDisplay:10.37,2013-08-24 17:51:00,
2013-08-24 13:56:00,81.3,63.1,30.18,ENE,62,4.6,4.6,54,0.00,CLR,,0.01,WeatherDisplay:10.37,2013-08-24 17:56:00,
2013-08-24 14:01:00,81.2,63.5,30.18,NNE,33,5.8,5.8,55,0.00,CLR,,0.01,WeatherDisplay:10.37,2013-08-24 18:01:00,
2013-08-24 14:06:00,81.4,62.6,30.18,ENE,67,6.9,6.9,53,0.00,CLR,,0.01,WeatherDisplay:10.37,2013-08-24 18:06:00,
2013-08-24 14:11:00,81.7,62.9,30.17,ENE,71,6.9,6.9,53,0.00,CLR,,0.01,WeatherDisplay:10.37,2013-08-24 18:11:00,
2013-08-24 14:16:00,82.1,63.3,30.18,East,97,10.4,10.4,53,0.00,CLR,,0.01,WeatherDisplay:10.37,2013-08-24 18:16:00,
2013-08-24 14:21:00,82.2,62.8,30.17,East,84,6.0,6.0,52,0.00,CLR,,0.01,WeatherDisplay:10.37,2013-08-24 18:21:00,
2013-08-24 14:26:00,82.1,64.3,30.17,NW,325,3.5,3.5,55,0.00,CLR,,0.01,WeatherDisplay:10.37,2013-08-24 18:26:00,
2013-08-24 14:31:00,82.2,62.8,30.17,ENE,64,3.5,3.5,52,0.01,RA,,0.02,WeatherDisplay:10.37,2013-08-24 18:31:00,
2013-08-24 14:36:00,82.5,64.2,30.17,NE,37,4.6,4.6,54,0.01,RA,,0.02,WeatherDisplay:10.37,2013-08-24 18:36:00,
2013-08-24 14:41:00,82.6,62.6,30.17,NE,34,9.2,9.2,51,0.01,CLR,,0.02,WeatherDisplay:10.37,2013-08-24 18:41:00,
2013-08-24 14:46:00,82.9,62.9,30.17,East,99,3.0,3.0,51,0.01,,,0.02,WeatherDisplay:10.37,2013-08-24 18:46:00,
2013-08-24 14:51:00,83.3,63.3,30.17,North,355,4.6,4.6,51,0.01,,,0.02,WeatherDisplay:10.37,2013-08-24 18:51:00,
2013-08-24 14:56:00,83.2,62.1,30.17,ENE,67,3.5,3.5,49,0.01,,,0.02,WeatherDisplay:10.37,2013-08-24 18:56:00,
2013-08-24 15:01:00,82.8,62.8,30.17,ENE,69,3.5,3.5,51,0.01,,,0.02,WeatherDisplay:10.37,2013-08-24 19:01:00,
2013-08-24 15:06:00,82.8,63.4,30.17,NW,307,6.9,6.9,52,0.01,,,0.02,WeatherDisplay:10.37,2013-08-24 19:06:00,
2013-08-24 15:11:00,82.7,62.2,30.17,ENE,77,4.6,4.6,50,0.01,,,0.02,WeatherDisplay:10.37,2013-08-24 19:11:00,
2013-08-24 15:16:00,82.4,63.0,30.17,ENE,61,6.9,6.9,52,0.01,,,0.02,WeatherDisplay:10.37,2013-08-24 19:16:00,
2013-08-24 15:21:00,82.5,62.0,30.16,East,84,3.5,3.5,50,0.01,,,0.02,WeatherDisplay:10.37,2013-08-24 19:21:00,
2013-08-24 15:26:00,82.1,61.6,30.17,ENE,68,3.5,3.5,50,0.01,,,0.02,WeatherDisplay:10.37,2013-08-24 19:26:00,
2013-08-24 15:31:00,81.7,62.9,30.17,ENE,63,1.2,1.2,53,0.00,,,0.02,WeatherDisplay:10.37,2013-08-24 19:31:00,
2013-08-24 15:36:00,81.6,62.3,30.17,NW,323,3.5,3.5,52,0.00,,,0.02,WeatherDisplay:10.37,2013-08-24 19:36:00,
2013-08-24 15:41:00,82.1,62.2,30.16,ENE,69,3.5,3.5,51,0.00,,,0.02,WeatherDisplay:10.37,2013-08-24 19:41:00,
2013-08-24 15:46:00,82.5,63.1,30.16,East,89,3.5,3.5,52,0.00,,,0.02,WeatherDisplay:10.37,2013-08-24 19:46:00,
2013-08-24 15:51:00,82.7,63.8,30.16,East,96,2.3,2.3,53,0.00,,,0.02,WeatherDisplay:10.37,2013-08-24 19:51:00,
2013-08-24 15:56:00,82.6,61.5,30.17,ENE,78,3.5,3.5,49,0.00,,,0.02,WeatherDisplay:10.37,2013-08-24 19:56:00,
2013-08-24 16:01:00,82.3,61.2,30.17,ENE,74,3.5,3.5,49,0.00,,,0.02,WeatherDisplay:10.37,2013-08-24 20:01:00,
2013-08-24 16:06:00,82.3,62.4,30.17,NE,55,3.5,3.5,51,0.00,,,0.02,WeatherDisplay:10.37,2013-08-24 20:06:00,
2013-08-24 16:11:00,82.6,63.2,30.16,SW,215,1.2,0.0,52,0.00,,,0.02,WeatherDisplay:10.37,2013-08-24 20:11:00,
2013-08-24 16:16:00,83.1,63.1,30.16,West,275,1.2,1.2,51,0.00,,,0.02,WeatherDisplay:10.37,2013-08-24 20:16:00,
2013-08-24 16:21:00,83.5,62.9,30.17,East,79,3.5,3.5,50,0.00,,,0.02,WeatherDisplay:10.37,2013-08-24 20:21:00,
2013-08-24 16:26:00,83.4,61.7,30.17,ENE,58,3.5,3.5,48,0.00,,,0.02,WeatherDisplay:10.37,2013-08-24 20:26:00,
2013-08-24 16:31:00,82.9,62.4,30.17,East,88,3.5,3.5,50,0.00,,,0.02,WeatherDisplay:10.37,2013-08-24 20:31:00,
2013-08-24 16:36:00,82.8,61.7,30.17,East,94,4.6,4.6,49,0.00,,,0.02,WeatherDisplay:10.37,2013-08-24 20:36:00,
2013-08-24 16:41:00,82.1,61.0,30.17,East,88,9.2,9.2,49,0.00,,,0.02,WeatherDisplay:10.37,2013-08-24 20:41:00,
2013-08-24 16:46:00,82.0,63.2,30.17,East,80,3.0,3.0,53,0.00,,,0.02,WeatherDisplay:10.37,2013-08-24 20:46:00,
2013-08-24 16:51:00,82.0,62.1,30.17,NE,38,5.8,5.8,51,0.00,,,0.02,WeatherDisplay:10.37,2013-08-24 20:51:00,
2013-08-24 16:56:00,82.1,61.6,30.17,East,82,6.9,6.9,50,0.00,,,0.02,WeatherDisplay:10.37,2013-08-24 20:56:00,
2013-08-24 17:01:00,82.2,61.1,30.17,East,98,3.5,3.5,49,0.00,,,0.02,WeatherDisplay:10.37,2013-08-24 21:01:00,
2013-08-24 17:06:00,82.0,62.1,30.17,ENE,76,3.5,3.5,51,0.00,,,0.02,WeatherDisplay:10.37,2013-08-24 21:06:00,
2013-08-24 17:11:00,81.9,62.5,30.17,East,91,3.5,3.5,52,0.00,,,0.02,WeatherDisplay:10.37,2013-08-24 21:11:00,
2013-08-24 18:20:00,81.5,62.7,30.17,East,86,3.5,3.5,53,0.00,,,0.02,WeatherDisplay:10.37,2013-08-24 22:20:00,
2013-08-24 18:25:00,81.0,63.3,30.17,East,86,0.0,0.0,55,0.00,,,0.02,WeatherDisplay:10.37,2013-08-24 22:25:00,
2013-08-24 18:30:00,80.7,63.5,30.17,East,86,1.2,0.0,56,0.00,,,0.02,WeatherDisplay:10.37,2013-08-24 22:30:00,
2013-08-24 18:35:00,80.6,64.0,30.17,East,86,1.2,0.0,57,0.00,,,0.02,WeatherDisplay:10.37,2013-08-24 22:35:00,
2013-08-24 18:40:00,80.5,63.9,30.17,East,86,1.2,0.0,57,0.00,,,0.02,WeatherDisplay:10.37,2013-08-24 22:40:00,
2013-08-24 18:45:00,80.2,64.1,30.17,East,86,1.2,1.2,58,0.00,,,0.02,WeatherDisplay:10.37,2013-08-24 22:45:00,
2013-08-24 18:50:00,80.0,64.4,30.18,East,86,2.0,2.0,59,0.00,,,0.02,WeatherDisplay:10.37,2013-08-24 22:50:00,
2013-08-24 18:55:00,79.6,64.0,30.17,East,86,2.3,2.3,59,0.00,,,0.02,WeatherDisplay:10.37,2013-08-24 22:55:00,
2013-08-24 19:00:00,79.4,65.2,30.17,East,86,1.2,0.0,62,0.00,,,0.02,WeatherDisplay:10.37,2013-08-24 23:00:00,
2013-08-24 19:05:00,79.0,65.3,30.17,East,86,0.0,0.0,63,0.00,,,0.02,WeatherDisplay:10.37,2013-08-24 23:05:00,
2013-08-24 19:10:00,78.6,64.9,30.17,East,86,2.3,2.3,63,0.00,,,0.02,WeatherDisplay:10.37,2013-08-24 23:10:00,
2013-08-24 19:15:00,78.2,65.0,30.17,East,86,0.0,0.0,64,0.00,,,0.02,WeatherDisplay:10.37,2013-08-24 23:15:00,
2013-08-24 19:20:00,77.8,66.0,30.17,East,86,0.0,0.0,67,0.00,,,0.02,WeatherDisplay:10.37,2013-08-24 23:20:00,
2013-08-24 19:25:00,77.4,66.4,30.18,East,86,0.0,0.0,69,0.00,,,0.02,WeatherDisplay:10.37,2013-08-24 23:25:00,
2013-08-24 19:30:00,77.0,66.5,30.18,East,86,0.0,0.0,70,0.00,,,0.02,WeatherDisplay:10.37,2013-08-24 23:30:00,
2013-08-24 19:35:00,76.5,66.4,30.18,East,86,0.0,0.0,71,0.00,,,0.02,WeatherDisplay:10.37,2013-08-24 23:35:00,
2013-08-24 19:40:00,76.0,65.9,30.18,East,86,0.0,0.0,71,0.00,,,0.02,WeatherDisplay:10.37,2013-08-24 23:40:00,
2013-08-24 19:45:00,75.5,65.8,30.18,East,86,0.0,0.0,72,0.00,,,0.02,WeatherDisplay:10.37,2013-08-24 23:45:00,
2013-08-24 19:50:00,75.0,65.8,30.18,East,86,0.0,0.0,73,0.00,,,0.02,WeatherDisplay:10.37,2013-08-24 23:50:00,
2013-08-24 19:55:00,74.5,66.1,30.19,East,86,0.0,0.0,75,0.00,,,0.02,WeatherDisplay:10.37,2013-08-24 23:55:00,
2013-08-24 20:00:00,74.0,65.6,30.19,East,86,0.0,0.0,75,0.00,,,0.02,WeatherDisplay:10.37,2013-08-25 00:00:00,
2013-08-24 20:05:00,73.5,65.5,30.19,East,86,0.0,0.0,76,0.00,,,0.02,WeatherDisplay:10.37,2013-08-25 00:05:00,
2013-08-24 20:10:00,73.0,65.4,30.19,East,86,0.0,0.0,77,0.00,,,0.02,WeatherDisplay:10.37,2013-08-25 00:10:00,
2013-08-24 20:15:00,72.5,64.9,30.19,East,86,0.0,0.0,77,0.00,,,0.02,WeatherDisplay:10.37,2013-08-25 00:15:00,
2013-08-24 20:20:00,72.0,64.8,30.19,East,86,0.0,0.0,78,0.00,,,0.02,WeatherDisplay:10.37,2013-08-25 00:20:00,
2013-08-24 20:25:00,71.7,64.8,30.19,East,86,0.0,0.0,79,0.00,,,0.02,WeatherDisplay:10.37,2013-08-25 00:25:00,
2013-08-24 20:30:00,71.2,64.7,30.19,East,86,0.0,0.0,80,0.00,,,0.02,WeatherDisplay:10.37,2013-08-25 00:30:00,
2013-08-24 20:35:00,70.8,64.3,30.20,East,86,0.0,0.0,80,0.00,,,0.02,WeatherDisplay:10.37,2013-08-25 00:35:00,
2013-08-24 20:40:00,70.4,64.3,30.20,East,86,0.0,0.0,81,0.00,,,0.02,WeatherDisplay:10.37,2013-08-25 00:40:00,
2013-08-24 20:45:00,70.0,63.9,30.20,East,86,0.0,0.0,81,0.00,,,0.02,WeatherDisplay:10.37,2013-08-25 00:45:00,
2013-08-24 20:50:00,69.6,63.9,30.20,East,86,0.0,0.0,82,0.01,RA,,0.03,WeatherDisplay:10.37,2013-08-25 00:50:00,
2013-08-24 20:55:00,69.2,64.2,30.21,East,86,0.0,0.0,84,0.01,RA,,0.03,WeatherDisplay:10.37,2013-08-25 00:55:00,
2013-08-24 21:00:00,68.9,63.9,30.20,East,86,0.0,0.0,84,0.01,,,0.03,WeatherDisplay:10.37,2013-08-25 01:00:00,
2013-08-24 21:05:00,68.5,63.5,30.21,East,86,0.0,0.0,84,0.01,,,0.03,WeatherDisplay:10.37,2013-08-25 01:05:00,
2013-08-24 21:10:00,68.3,63.6,30.21,East,86,0.0,0.0,85,0.01,,,0.03,WeatherDisplay:10.37,2013-08-25 01:10:00,
2013-08-24 21:15:00,67.9,63.2,30.21,East,86,0.0,0.0,85,0.01,,,0.03,WeatherDisplay:10.37,2013-08-25 01:15:00,
2013-08-24 21:20:00,67.7,63.4,30.21,East,86,1.2,1.2,86,0.01,,,0.03,WeatherDisplay:10.37,2013-08-25 01:20:00,
2013-08-24 21:25:00,67.5,63.2,30.22,East,86,0.0,0.0,86,0.01,,,0.03,WeatherDisplay:10.37,2013-08-25 01:25:00,
2013-08-24 21:30:00,67.3,63.3,30.22,East,86,0.0,0.0,87,0.01,,,0.03,WeatherDisplay:10.37,2013-08-25 01:30:00,
2013-08-24 21:35:00,67.1,63.1,30.22,East,86,0.0,0.0,87,0.01,,,0.03,WeatherDisplay:10.37,2013-08-25 01:35:00,
2013-08-24 21:40:00,66.9,63.2,30.22,East,86,0.0,0.0,88,0.01,,,0.03,WeatherDisplay:10.37,2013-08-25 01:40:00,
2013-08-24 21:45:00,66.7,63.0,30.22,East,86,0.0,0.0,88,0.01,,,0.03,WeatherDisplay:10.37,2013-08-25 01:45:00,
2013-08-24 21:50:00,66.6,62.9,30.22,East,86,0.0,0.0,88,0.00,,,0.03,WeatherDisplay:10.37,2013-08-25 01:50:00,
2013-08-24 21:55:00,66.5,62.8,30.22,East,86,0.0,0.0,88,0.00,,,0.03,WeatherDisplay:10.37,2013-08-25 01:55:00,
2013-08-24 22:00:00,66.3,63.0,30.22,East,86,0.0,0.0,89,0.00,,,0.03,WeatherDisplay:10.37,2013-08-25 02:00:00,
2013-08-24 22:05:00,66.2,62.9,30.23,East,86,0.0,0.0,89,0.00,,,0.03,WeatherDisplay:10.37,2013-08-25 02:05:00,
2013-08-24 22:10:00,66.1,62.8,30.23,East,86,0.0,0.0,89,0.00,,,0.03,WeatherDisplay:10.37,2013-08-25 02:10:00,
2013-08-24 22:15:00,65.9,62.6,30.23,East,86,0.0,0.0,89,0.00,,,0.03,WeatherDisplay:10.37,2013-08-25 02:15:00,
2013-08-24 22:20:00,65.8,62.5,30.23,East,86,0.0,0.0,89,0.00,,,0.03,WeatherDisplay:10.37,2013-08-25 02:20:00,
2013-08-24 22:25:00,65.7,62.4,30.23,East,86,0.0,0.0,89,0.00,,,0.03,WeatherDisplay:10.37,2013-08-25 02:25:00,
2013-08-24 22:30:00,65.6,62.9,30.23,East,86,0.0,0.0,91,0.00,,,0.03,WeatherDisplay:10.37,2013-08-25 02:30:00,
2013-08-24 22:35:00,65.5,62.8,30.23,East,86,0.0,0.0,91,0.00,,,0.03,WeatherDisplay:10.37,2013-08-25 02:35:00,
2013-08-24 22:40:00,65.5,62.8,30.23,East,86,0.0,0.0,91,0.00,,,0.03,WeatherDisplay:10.37,2013-08-25 02:40:00,
2013-08-24 22:45:00,65.4,62.7,30.24,East,86,0.0,0.0,91,0.00,,,0.03,WeatherDisplay:10.37,2013-08-25 02:45:00,
2013-08-24 22:50:00,65.2,62.5,30.24,East,86,0.0,0.0,91,0.00,,,0.03,WeatherDisplay:10.37,2013-08-25 02:50:00,
2013-08-24 22:55:00,65.2,62.5,30.24,East,86,0.0,0.0,91,0.00,,,0.03,WeatherDisplay:10.37,2013-08-25 02:55:00,
2013-08-24 23:00:00,65.1,62.4,30.24,East,86,0.0,0.0,91,0.00,,,0.03,WeatherDisplay:10.37,2013-08-25 03:00:00,
2013-08-24 23:05:00,65.0,62.3,30.24,East,86,0.0,0.0,91,0.00,,,0.03,WeatherDisplay:10.37,2013-08-25 03:05:00,
2013-08-24 23:10:00,65.0,62.6,30.25,East,86,0.0,0.0,92,0.00,,,0.03,WeatherDisplay:10.37,2013-08-25 03:10:00,
2013-08-24 23:15:00,64.9,62.5,30.25,East,86,0.0,0.0,92,0.00,,,0.03,WeatherDisplay:10.37,2013-08-25 03:15:00,
2013-08-24 23:20:00,64.8,62.4,30.25,East,86,0.0,0.0,92,0.00,,,0.03,WeatherDisplay:10.37,2013-08-25 03:20:00,
2013-08-24 23:25:00,64.8,62.4,30.25,East,86,0.0,0.0,92,0.00,,,0.03,WeatherDisplay:10.37,2013-08-25 03:25:00,
2013-08-24 23:31:00,64.7,62.3,30.25,East,86,0.0,0.0,92,0.00,,,0.03,WeatherDisplay:10.37,2013-08-25 03:31:00,
2013-08-24 23:35:00,64.6,62.2,30.25,East,86,0.0,0.0,92,0.00,,,0.03,WeatherDisplay:10.37,2013-08-25 03:35:00,
2013-08-24 23:40:00,64.6,62.2,30.25,East,86,0.0,0.0,92,0.00,,,0.03,WeatherDisplay:10.37,2013-08-25 03:40:00,
2013-08-24 23:46:00,64.5,62.1,30.25,East,86,0.0,0.0,92,0.00,,,0.03,WeatherDisplay:10.37,2013-08-25 03:46:00,
2013-08-24 23:51:00,64.5,62.1,30.26,East,86,0.0,0.0,92,0.00,,,0.03,WeatherDisplay:10.37,2013-08-25 03:51:00,
2013-08-24 23:56:00,64.4,62.3,30.26,East,86,0.0,0.0,93,0.00,,,0.03,WeatherDisplay:10.37,2013-08-25 03:56:00,